Time,TemperatureF,DewpointF,PressureIn,WindDirection,WindDirectionDegrees,WindSpeedMPH,WindSpeedGustMPH,Humidity,HourlyPrecipIn,Conditions,Clouds,dailyrainin,SoftwareType,DateUTC
2013-06-20 00:01:00,69.6,66.2,30.07,South,182,0.0,0.0,89,0.00,,FEW250,0.00,VWS V14.01,2013-06-20 04:01:00,
2013-06-20 00:02:00,69.6,66.2,30.07,South,182,0.0,0.0,89,0.00,,FEW250,0.00,VWS V14.01,2013-06-20 04:02:00,
2013-06-20 00:04:00,69.5,66.1,30.07,South,182,0.0,0.0,89,0.00,,FEW250,0.00,VWS V14.01,2013-06-20 04:04:00,
2013-06-20 00:05:00,69.5,66.1,30.07,South,182,0.0,0.0,89,0.00,,FEW250,0.00,VWS V14.01,2013-06-20 04:05:00,
2013-06-20 00:10:00,69.4,66.3,30.07,South,182,0.0,0.0,90,0.00,,FEW250,0.00,VWS V14.01,2013-06-20 04:10:00,
2013-06-20 00:15:00,69.3,66.2,30.07,South,182,0.0,0.0,90,0.00,,FEW250,0.00,VWS V14.01,2013-06-20 04:15:00,
2013-06-20 00:21:00,69.1,66.4,30.08,South,182,0.0,0.0,91,0.00,,FEW250,0.00,VWS V14.01,2013-06-20 04:21:00,
2013-06-20 00:26:00,69.0,66.3,30.08,South,182,0.0,0.0,91,0.00,,FEW250,0.00,VWS V14.01,2013-06-20 04:26:00,
2013-06-20 00:31:00,68.9,66.2,30.08,South,182,0.0,0.0,91,0.00,,FEW250,0.00,VWS V14.01,2013-06-20 04:31:00,
2013-06-20 00:36:00,68.8,66.1,30.08,South,182,0.0,0.0,91,0.00,,FEW250,0.00,VWS V14.01,2013-06-20 04:36:00,
2013-06-20 00:41:00,68.7,66.0,30.08,South,182,0.0,0.0,91,0.00,,FEW250,0.00,VWS V14.01,2013-06-20 04:41:00,
2013-06-20 00:46:00,68.6,66.2,30.08,South,182,0.0,0.0,92,0.00,,FEW250,0.00,VWS V14.01,2013-06-20 04:46:00,
2013-06-20 00:51:00,68.5,65.8,30.08,South,182,0.0,0.0,91,0.00,,FEW250,0.00,VWS V14.01,2013-06-20 04:51:00,
2013-06-20 00:56:00,68.5,66.1,30.08,South,182,0.0,0.0,92,0.00,,FEW250,0.00,VWS V14.01,2013-06-20 04:56:00,
2013-06-20 01:01:00,68.4,66.0,30.08,South,182,0.0,0.0,92,0.00,,FEW250,0.00,VWS V14.01,2013-06-20 05:01:00,
2013-06-20 01:06:00,68.3,65.9,30.08,South,182,0.0,0.0,92,0.00,,FEW250,0.00,VWS V14.01,2013-06-20 05:06:00,
2013-06-20 01:11:00,68.2,65.8,30.08,South,182,0.0,0.0,92,0.00,,FEW250,0.00,VWS V14.01,2013-06-20 05:11:00,
2013-06-20 01:16:00,68.1,65.7,30.08,South,182,0.0,0.0,92,0.00,,FEW250,0.00,VWS V14.01,2013-06-20 05:16:00,
2013-06-20 01:21:00,68.0,65.6,30.08,South,182,0.0,0.0,92,0.00,,FEW250,0.00,VWS V14.01,2013-06-20 05:21:00,
2013-06-20 01:26:00,67.9,65.8,30.08,South,182,0.0,0.0,93,0.00,,FEW250,0.00,VWS V14.01,2013-06-20 05:26:00,
2013-06-20 01:31:00,67.9,65.8,30.08,South,182,0.0,0.0,93,0.00,,FEW250,0.00,VWS V14.01,2013-06-20 05:31:00,
2013-06-20 01:36:00,67.8,65.7,30.07,South,182,0.0,0.0,93,0.00,,FEW250,0.00,VWS V14.01,2013-06-20 05:36:00,
2013-06-20 01:42:00,67.8,65.7,30.07,South,182,0.0,0.0,93,0.00,,FEW250,0.00,VWS V14.01,2013-06-20 05:42:00,
2013-06-20 01:47:00,67.7,65.6,30.07,South,182,0.0,0.0,93,0.00,,FEW250,0.00,VWS V14.01,2013-06-20 05:47:00,
2013-06-20 01:52:00,67.7,65.6,30.07,South,182,0.0,0.0,93,0.00,,FEW250,0.00,VWS V14.01,2013-06-20 05:52:00,
2013-06-20 01:57:00,67.7,65.6,30.08,South,182,0.0,0.0,93,0.00,,FEW250,0.00,VWS V14.01,2013-06-20 05:57:00,
2013-06-20 02:02:00,67.7,65.6,30.08,South,171,0.0,0.0,93,0.00,,CLR,0.00,VWS V14.01,2013-06-20 06:02:00,
2013-06-20 02:07:00,67.7,65.6,30.08,SSE,150,0.0,0.0,93,0.00,,CLR,0.00,VWS V14.01,2013-06-20 06:07:00,
2013-06-20 02:12:00,67.7,65.6,30.08,SSE,150,0.0,0.0,93,0.00,,CLR,0.00,VWS V14.01,2013-06-20 06:12:00,
2013-06-20 02:17:00,67.7,65.6,30.07,SSE,150,0.0,0.0,93,0.00,,CLR,0.00,VWS V14.01,2013-06-20 06:17:00,
2013-06-20 02:22:00,67.7,65.6,30.07,SSE,150,0.0,0.0,93,0.00,,CLR,0.00,VWS V14.01,2013-06-20 06:22:00,
2013-06-20 02:27:00,67.6,65.5,30.07,SSE,150,0.0,0.0,93,0.00,,CLR,0.00,VWS V14.01,2013-06-20 06:27:00,
2013-06-20 02:32:00,67.6,65.5,30.07,SSE,150,0.0,0.0,93,0.00,,CLR,0.00,VWS V14.01,2013-06-20 06:32:00,
2013-06-20 02:37:00,67.6,65.5,30.07,East,96,0.0,0.0,93,0.00,,CLR,0.00,VWS V14.01,2013-06-20 06:37:00,
2013-06-20 02:42:00,67.7,65.6,30.07,East,96,0.0,0.0,93,0.00,,CLR,0.00,VWS V14.01,2013-06-20 06:42:00,
2013-06-20 02:47:00,67.7,65.6,30.07,SSW,192,0.0,0.0,93,0.00,,CLR,0.00,VWS V14.01,2013-06-20 06:47:00,
2013-06-20 02:52:00,67.6,65.5,30.08,SSW,192,0.0,0.0,93,0.00,,CLR,0.00,VWS V14.01,2013-06-20 06:52:00,
2013-06-20 02:57:00,67.7,65.6,30.08,South,188,0.0,0.0,93,0.00,,CLR,0.00,VWS V14.01,2013-06-20 06:57:00,
2013-06-20 03:02:00,67.7,65.6,30.08,SSW,213,0.0,0.0,93,0.00,,CLR,0.00,VWS V14.01,2013-06-20 07:02:00,
2013-06-20 03:07:00,67.7,65.6,30.08,SSE,167,0.0,0.0,93,0.00,,CLR,0.00,VWS V14.01,2013-06-20 07:07:00,
2013-06-20 03:12:00,67.8,65.4,30.08,South,169,0.0,0.0,92,0.00,,CLR,0.00,VWS V14.01,2013-06-20 07:12:00,
2013-06-20 03:17:00,67.8,65.4,30.07,South,171,0.0,0.0,92,0.00,,CLR,0.00,VWS V14.01,2013-06-20 07:17:00,
2013-06-20 03:22:00,67.8,65.4,30.08,SSW,194,0.0,0.0,92,0.00,,CLR,0.00,VWS V14.01,2013-06-20 07:22:00,
2013-06-20 03:27:00,67.8,65.4,30.08,SSW,196,0.0,0.0,92,0.00,,CLR,0.00,VWS V14.01,2013-06-20 07:27:00,
2013-06-20 03:32:00,67.8,65.4,30.08,SE,130,1.0,0.0,92,0.00,,CLR,0.00,VWS V14.01,2013-06-20 07:32:00,
2013-06-20 03:37:00,67.8,65.4,30.08,SSE,164,0.0,0.0,92,0.00,,CLR,0.00,VWS V14.01,2013-06-20 07:37:00,
2013-06-20 03:42:00,67.8,65.4,30.08,SSE,167,0.0,0.0,92,0.00,,CLR,0.00,VWS V14.01,2013-06-20 07:42:00,
2013-06-20 03:47:00,67.7,65.3,30.08,SE,134,0.0,0.0,92,0.00,,CLR,0.00,VWS V14.01,2013-06-20 07:47:00,
2013-06-20 03:52:00,67.7,65.3,30.08,SE,140,0.0,0.0,92,0.00,,CLR,0.00,VWS V14.01,2013-06-20 07:52:00,
2013-06-20 03:57:00,67.7,65.3,30.08,SE,139,0.0,0.0,92,0.00,,CLR,0.00,VWS V14.01,2013-06-20 07:57:00,
2013-06-20 04:02:00,67.7,65.3,30.08,SE,142,0.0,0.0,92,0.00,,CLR,0.00,VWS V14.01,2013-06-20 08:02:00,
2013-06-20 04:07:00,67.7,65.3,30.08,SE,142,0.0,0.0,92,0.00,,CLR,0.00,VWS V14.01,2013-06-20 08:07:00,
2013-06-20 04:12:00,67.6,65.2,30.08,SW,215,1.0,0.0,92,0.00,,CLR,0.00,VWS V14.01,2013-06-20 08:12:00,
2013-06-20 04:17:00,67.6,65.2,30.08,SSW,202,0.0,0.0,92,0.00,,CLR,0.00,VWS V14.01,2013-06-20 08:17:00,
2013-06-20 04:22:00,67.6,65.2,30.08,SSW,202,0.0,0.0,92,0.00,,CLR,0.00,VWS V14.01,2013-06-20 08:22:00,
2013-06-20 04:27:00,67.5,65.1,30.09,SE,125,0.0,0.0,92,0.00,,CLR,0.00,VWS V14.01,2013-06-20 08:27:00,
2013-06-20 04:32:00,67.5,65.1,30.09,East,92,0.0,0.0,92,0.00,,CLR,0.00,VWS V14.01,2013-06-20 08:32:00,
2013-06-20 04:37:00,67.4,65.0,30.09,SSW,197,0.0,0.0,92,0.00,,CLR,0.00,VWS V14.01,2013-06-20 08:37:00,
2013-06-20 04:42:00,67.4,65.0,30.09,East,100,0.0,0.0,92,0.00,,CLR,0.00,VWS V14.01,2013-06-20 08:42:00,
2013-06-20 04:47:00,67.4,65.0,30.09,SE,134,0.0,0.0,92,0.00,,CLR,0.00,VWS V14.01,2013-06-20 08:47:00,
2013-06-20 04:52:00,67.3,64.9,30.09,SE,134,0.0,0.0,92,0.00,,CLR,0.00,VWS V14.01,2013-06-20 08:52:00,
2013-06-20 04:57:00,67.2,64.8,30.09,SE,146,0.0,0.0,92,0.00,,CLR,0.00,VWS V14.01,2013-06-20 08:57:00,
2013-06-20 05:02:00,67.1,64.7,30.09,SSE,150,0.0,0.0,92,0.00,,CLR,0.00,VWS V14.01,2013-06-20 09:02:00,
2013-06-20 05:07:00,67.1,64.7,30.09,SE,130,0.0,0.0,92,0.00,,CLR,0.00,VWS V14.01,2013-06-20 09:07:00,
2013-06-20 05:12:00,67.0,64.6,30.09,NE,56,0.0,0.0,92,0.00,,CLR,0.00,VWS V14.01,2013-06-20 09:12:00,
2013-06-20 05:17:00,66.9,64.5,30.10,South,180,0.0,0.0,92,0.00,,CLR,0.00,VWS V14.01,2013-06-20 09:17:00,
2013-06-20 05:22:00,66.8,64.4,30.10,South,174,0.0,0.0,92,0.00,,CLR,0.00,VWS V14.01,2013-06-20 09:22:00,
2013-06-20 05:27:00,66.8,64.4,30.10,ESE,113,0.0,0.0,92,0.00,,CLR,0.00,VWS V14.01,2013-06-20 09:27:00,
2013-06-20 05:32:00,66.7,64.6,30.11,SSE,165,0.0,0.0,93,0.00,,CLR,0.00,VWS V14.01,2013-06-20 09:32:00,
2013-06-20 05:37:00,66.7,64.6,30.11,South,191,0.0,0.0,93,0.00,,CLR,0.00,VWS V14.01,2013-06-20 09:37:00,
2013-06-20 05:42:00,66.6,64.5,30.11,South,191,0.0,0.0,93,0.00,,CLR,0.00,VWS V14.01,2013-06-20 09:42:00,
2013-06-20 05:47:00,66.6,64.5,30.11,South,191,0.0,0.0,93,0.00,,CLR,0.00,VWS V14.01,2013-06-20 09:47:00,
2013-06-20 05:52:00,66.5,64.4,30.11,South,173,0.0,0.0,93,0.00,,CLR,0.00,VWS V14.01,2013-06-20 09:52:00,
2013-06-20 05:57:00,66.4,64.3,30.12,South,173,0.0,0.0,93,0.00,,CLR,0.00,VWS V14.01,2013-06-20 09:57:00,
2013-06-20 06:02:00,66.3,64.2,30.12,SSE,163,0.0,0.0,93,0.00,,FEW250,0.00,VWS V14.01,2013-06-20 10:02:00,
2013-06-20 06:07:00,66.2,64.1,30.12,SSE,163,0.0,0.0,93,0.00,,FEW250,0.00,VWS V14.01,2013-06-20 10:07:00,
2013-06-20 06:12:00,66.2,64.1,30.12,SSE,163,0.0,0.0,93,0.00,,FEW250,0.00,VWS V14.01,2013-06-20 10:12:00,
2013-06-20 06:17:00,66.1,64.0,30.12,SSE,163,0.0,0.0,93,0.00,,FEW250,0.00,VWS V14.01,2013-06-20 10:17:00,
2013-06-20 06:22:00,66.0,63.9,30.13,SSE,163,0.0,0.0,93,0.00,,FEW250,0.00,VWS V14.01,2013-06-20 10:22:00,
2013-06-20 06:27:00,65.9,64.1,30.13,SSE,163,0.0,0.0,94,0.00,,FEW250,0.00,VWS V14.01,2013-06-20 10:27:00,
2013-06-20 06:32:00,65.9,64.1,30.13,SSE,163,0.0,0.0,94,0.00,,FEW250,0.00,VWS V14.01,2013-06-20 10:32:00,
2013-06-20 06:37:00,65.8,64.0,30.13,SSE,163,0.0,0.0,94,0.00,,FEW250,0.00,VWS V14.01,2013-06-20 10:37:00,
2013-06-20 06:42:00,65.8,64.0,30.13,SSE,163,0.0,0.0,94,0.00,,FEW250,0.00,VWS V14.01,2013-06-20 10:42:00,
2013-06-20 06:47:00,65.7,63.9,30.14,SSE,163,0.0,0.0,94,0.00,,FEW250,0.00,VWS V14.01,2013-06-20 10:47:00,
2013-06-20 06:52:00,65.7,63.9,30.14,SSE,163,0.0,0.0,94,0.00,,FEW250,0.00,VWS V14.01,2013-06-20 10:52:00,
2013-06-20 06:57:00,65.7,63.9,30.14,SSE,163,0.0,0.0,94,0.00,,FEW250,0.00,VWS V14.01,2013-06-20 10:57:00,
2013-06-20 07:02:00,65.8,64.3,30.14,SSE,163,0.0,0.0,95,0.00,,SCT044,0.00,VWS V14.01,2013-06-20 11:02:00,
2013-06-20 07:07:00,65.9,64.4,30.14,SSE,162,0.0,0.0,95,0.00,,SCT044,0.00,VWS V14.01,2013-06-20 11:07:00,
2013-06-20 07:12:00,65.9,64.4,30.14,SSE,157,0.0,0.0,95,0.00,,SCT044,0.00,VWS V14.01,2013-06-20 11:12:00,
2013-06-20 07:17:00,66.0,64.5,30.14,WSW,240,0.0,0.0,95,0.00,,SCT044,0.00,VWS V14.01,2013-06-20 11:17:00,
2013-06-20 07:22:00,66.2,64.7,30.15,WSW,239,0.0,0.0,95,0.00,,SCT044,0.00,VWS V14.01,2013-06-20 11:22:00,
2013-06-20 07:27:00,66.3,64.8,30.15,WSW,244,0.0,0.0,95,0.00,,SCT044,0.00,VWS V14.01,2013-06-20 11:27:00,
2013-06-20 07:32:00,66.6,65.1,30.15,SSW,210,0.0,0.0,95,0.00,,SCT044,0.00,VWS V14.01,2013-06-20 11:32:00,
2013-06-20 07:37:00,67.0,65.2,30.15,SE,124,1.0,0.0,94,0.00,,SCT044,0.00,VWS V14.01,2013-06-20 11:37:00,
2013-06-20 07:42:00,67.4,65.3,30.15,ESE,111,0.0,0.0,93,0.00,,SCT044,0.00,VWS V14.01,2013-06-20 11:42:00,
2013-06-20 07:47:00,67.9,65.5,30.16,South,182,0.0,0.0,92,0.00,,SCT044,0.00,VWS V14.01,2013-06-20 11:47:00,
2013-06-20 07:52:00,68.4,65.0,30.16,SE,126,0.0,0.0,89,0.00,,SCT044,0.00,VWS V14.01,2013-06-20 11:52:00,
2013-06-20 07:57:00,68.7,65.3,30.16,South,173,3.0,0.0,89,0.00,,SCT044,0.00,VWS V14.01,2013-06-20 11:57:00,
2013-06-20 08:02:00,69.0,65.3,30.16,South,179,0.0,0.0,88,0.00,,FEW045,0.00,VWS V14.01,2013-06-20 12:02:00,
2013-06-20 08:07:00,69.4,65.7,30.16,SW,217,0.0,0.0,88,0.00,,FEW045,0.00,VWS V14.01,2013-06-20 12:07:00,
2013-06-20 08:12:00,69.7,66.0,30.16,NE,38,0.0,0.0,88,0.00,,FEW045,0.00,VWS V14.01,2013-06-20 12:12:00,
2013-06-20 08:17:00,70.1,65.7,30.16,East,82,0.0,0.0,86,0.00,,FEW045,0.00,VWS V14.01,2013-06-20 12:17:00,
2013-06-20 08:22:00,70.3,65.9,30.17,SSW,194,0.0,0.0,86,0.00,,FEW045,0.00,VWS V14.01,2013-06-20 12:22:00,
2013-06-20 08:27:00,70.6,66.6,30.17,WNW,296,0.0,0.0,87,0.00,,FEW045,0.00,VWS V14.01,2013-06-20 12:27:00,
2013-06-20 08:32:00,70.9,66.2,30.17,ENE,71,0.0,0.0,85,0.00,,FEW045,0.00,VWS V14.01,2013-06-20 12:32:00,
2013-06-20 08:37:00,71.2,65.8,30.17,SE,146,0.0,0.0,83,0.00,,FEW045,0.00,VWS V14.01,2013-06-20 12:37:00,
2013-06-20 08:42:00,71.4,66.0,30.17,WSW,242,1.0,0.0,83,0.00,,FEW045,0.00,VWS V14.01,2013-06-20 12:42:00,
2013-06-20 08:47:00,71.5,66.1,30.17,ESE,115,0.0,0.0,83,0.00,,FEW045,0.00,VWS V14.01,2013-06-20 12:47:00,
2013-06-20 08:52:00,71.6,66.2,30.17,South,172,1.0,0.0,83,0.00,,FEW045,0.00,VWS V14.01,2013-06-20 12:52:00,
2013-06-20 08:57:00,71.5,66.4,30.17,South,181,2.0,0.0,84,0.00,,FEW045,0.00,VWS V14.01,2013-06-20 12:57:00,
2013-06-20 09:02:00,71.6,65.8,30.18,SSE,159,1.0,0.0,82,0.00,,FEW013,0.00,VWS V14.01,2013-06-20 13:02:00,
2013-06-20 09:07:00,71.6,65.8,30.17,SSW,192,0.0,0.0,82,0.00,,FEW013,0.00,VWS V14.01,2013-06-20 13:07:00,
2013-06-20 09:12:00,71.7,66.3,30.18,East,95,0.0,0.0,83,0.00,,FEW013,0.00,VWS V14.01,2013-06-20 13:12:00,
2013-06-20 09:17:00,71.9,65.8,30.18,SSE,166,2.0,0.0,81,0.00,,FEW013,0.00,VWS V14.01,2013-06-20 13:17:00,
2013-06-20 09:22:00,72.1,65.9,30.18,South,177,1.0,0.0,81,0.00,,FEW013,0.00,VWS V14.01,2013-06-20 13:22:00,
2013-06-20 09:27:00,72.6,66.4,30.18,SSE,160,0.0,0.0,81,0.00,,FEW013,0.00,VWS V14.01,2013-06-20 13:27:00,
2013-06-20 09:32:00,73.0,66.1,30.18,SSE,165,1.0,0.0,79,0.00,,FEW013,0.00,VWS V14.01,2013-06-20 13:32:00,
2013-06-20 09:37:00,73.4,66.9,30.18,NE,40,0.0,0.0,80,0.00,,FEW013,0.00,VWS V14.01,2013-06-20 13:37:00,
2013-06-20 09:42:00,73.6,66.3,30.18,SSE,167,1.0,0.0,78,0.00,,FEW013,0.00,VWS V14.01,2013-06-20 13:42:00,
2013-06-20 09:47:00,73.8,66.2,30.18,SW,216,0.0,0.0,77,0.00,,FEW013,0.00,VWS V14.01,2013-06-20 13:47:00,
2013-06-20 09:52:00,74.0,66.3,30.18,South,187,0.0,0.0,77,0.00,,FEW013,0.00,VWS V14.01,2013-06-20 13:52:00,
2013-06-20 09:57:00,73.9,66.2,30.18,South,186,1.0,0.0,77,0.00,,FEW013,0.00,VWS V14.01,2013-06-20 13:57:00,
2013-06-20 10:02:00,74.1,66.8,30.18,South,171,0.0,0.0,78,0.00,,CLR,0.00,VWS V14.01,2013-06-20 14:02:00,
2013-06-20 10:07:00,74.0,66.3,30.18,SSW,199,0.0,0.0,77,0.00,,CLR,0.00,VWS V14.01,2013-06-20 14:07:00,
2013-06-20 10:12:00,74.4,66.0,30.18,South,176,1.0,0.0,75,0.00,,CLR,0.00,VWS V14.01,2013-06-20 14:12:00,
2013-06-20 10:17:00,75.1,66.2,30.18,South,175,2.0,0.0,74,0.00,,CLR,0.00,VWS V14.01,2013-06-20 14:17:00,
2013-06-20 10:22:00,75.5,66.6,30.18,SSW,200,0.0,0.0,74,0.00,,CLR,0.00,VWS V14.01,2013-06-20 14:22:00,
2013-06-20 10:27:00,75.4,66.9,30.18,SW,218,1.0,0.0,75,0.00,,CLR,0.00,VWS V14.01,2013-06-20 14:27:00,
2013-06-20 10:33:00,74.8,65.6,30.18,NNE,16,1.0,0.0,73,0.00,,CLR,0.00,VWS V14.01,2013-06-20 14:33:00,
2013-06-20 10:38:00,74.9,66.1,30.18,SE,144,0.0,0.0,74,0.00,,CLR,0.00,VWS V14.01,2013-06-20 14:38:00,
2013-06-20 10:43:00,75.5,66.6,30.17,ESE,105,0.0,0.0,74,0.00,,CLR,0.00,VWS V14.01,2013-06-20 14:43:00,
2013-06-20 10:48:00,76.0,67.1,30.18,SSE,166,0.0,0.0,74,0.00,,CLR,0.00,VWS V14.01,2013-06-20 14:48:00,
2013-06-20 10:53:00,76.2,66.9,30.17,SSE,167,0.0,0.0,73,0.00,,CLR,0.00,VWS V14.01,2013-06-20 14:53:00,
2013-06-20 10:58:00,76.1,66.4,30.18,ESE,118,1.0,0.0,72,0.00,,CLR,0.00,VWS V14.01,2013-06-20 14:58:00,
2013-06-20 11:03:00,76.0,65.9,30.18,NW,304,4.0,0.0,71,0.00,,FEW023,0.00,VWS V14.01,2013-06-20 15:03:00,
2013-06-20 11:08:00,76.4,66.3,30.17,East,99,1.0,0.0,71,0.00,,FEW023,0.00,VWS V14.01,2013-06-20 15:08:00,
2013-06-20 11:13:00,76.4,66.7,30.18,ENE,62,2.0,0.0,72,0.00,,FEW023,0.00,VWS V14.01,2013-06-20 15:13:00,
2013-06-20 11:18:00,76.6,66.9,30.18,SW,219,2.0,0.0,72,0.00,,FEW023,0.00,VWS V14.01,2013-06-20 15:18:00,
2013-06-20 11:23:00,77.1,65.7,30.18,NNE,27,2.0,0.0,68,0.00,,FEW023,0.00,VWS V14.01,2013-06-20 15:23:00,
2013-06-20 11:28:00,77.4,66.9,30.18,ENE,73,1.0,0.0,70,0.00,,FEW023,0.00,VWS V14.01,2013-06-20 15:28:00,
2013-06-20 11:33:00,77.3,67.2,30.18,SSE,154,0.0,0.0,71,0.00,,FEW023,0.00,VWS V14.01,2013-06-20 15:33:00,
2013-06-20 11:38:00,77.6,66.2,30.18,SSE,165,1.0,0.0,68,0.00,,FEW023,0.00,VWS V14.01,2013-06-20 15:38:00,
2013-06-20 11:43:00,77.8,67.2,30.18,SSW,202,2.0,0.0,70,0.00,,FEW023,0.00,VWS V14.01,2013-06-20 15:43:00,
2013-06-20 11:48:00,77.7,65.9,30.18,SE,126,1.0,0.0,67,0.00,,FEW023,0.00,VWS V14.01,2013-06-20 15:48:00,
2013-06-20 11:53:00,77.8,67.2,30.18,ENE,61,1.0,0.0,70,0.00,,FEW023,0.00,VWS V14.01,2013-06-20 15:53:00,
2013-06-20 11:58:00,77.5,66.9,30.18,SSE,163,2.0,0.0,70,0.00,,FEW023,0.00,VWS V14.01,2013-06-20 15:58:00,
2013-06-20 12:03:00,77.3,67.2,30.18,SSE,159,3.0,0.0,71,0.00,,SCT030,0.00,VWS V14.01,2013-06-20 16:03:00,
2013-06-20 12:08:00,77.8,66.0,30.18,SSE,161,3.0,0.0,67,0.00,,SCT030,0.00,VWS V14.01,2013-06-20 16:08:00,
2013-06-20 12:13:00,78.0,66.2,30.18,South,188,2.0,0.0,67,0.00,,SCT030,0.00,VWS V14.01,2013-06-20 16:13:00,
2013-06-20 12:18:00,77.8,66.4,30.18,ENE,66,2.0,0.0,68,0.00,,SCT030,0.00,VWS V14.01,2013-06-20 16:18:00,
2013-06-20 12:23:00,77.6,67.1,30.18,South,188,0.0,0.0,70,0.00,,SCT030,0.00,VWS V14.01,2013-06-20 16:23:00,
2013-06-20 12:28:00,77.0,66.1,30.18,South,188,0.0,0.0,69,0.00,,SCT030,0.00,VWS V14.01,2013-06-20 16:28:00,
2013-06-20 12:33:00,76.5,65.6,30.18,South,188,0.0,0.0,69,0.00,,SCT030,0.00,VWS V14.01,2013-06-20 16:33:00,
2013-06-20 12:38:00,76.6,66.9,30.18,ENE,78,0.0,0.0,72,0.00,,SCT030,0.00,VWS V14.01,2013-06-20 16:38:00,
2013-06-20 12:43:00,77.1,67.0,30.18,ESE,111,0.0,0.0,71,0.00,,SCT030,0.00,VWS V14.01,2013-06-20 16:43:00,
2013-06-20 12:48:00,77.4,66.4,30.18,WSW,242,1.0,0.0,69,0.00,,SCT030,0.00,VWS V14.01,2013-06-20 16:48:00,
2013-06-20 12:53:00,77.4,66.9,30.18,South,174,0.0,0.0,70,0.00,,SCT030,0.00,VWS V14.01,2013-06-20 16:53:00,
2013-06-20 12:58:00,77.9,67.3,30.18,South,174,0.0,0.0,70,0.00,,SCT030,0.00,VWS V14.01,2013-06-20 16:58:00,
2013-06-20 13:03:00,78.2,66.8,30.18,East,90,0.0,0.0,68,0.00,,BKN035,0.00,VWS V14.01,2013-06-20 17:03:00,
2013-06-20 13:08:00,78.1,66.7,30.18,East,90,0.0,0.0,68,0.00,,BKN035,0.00,VWS V14.01,2013-06-20 17:08:00,
2013-06-20 13:13:00,78.3,67.3,30.18,ENE,59,1.0,0.0,69,0.00,,BKN035,0.00,VWS V14.01,2013-06-20 17:13:00,
2013-06-20 13:18:00,78.9,67.0,30.18,SSW,209,0.0,0.0,67,0.00,,BKN035,0.00,VWS V14.01,2013-06-20 17:18:00,
2013-06-20 13:23:00,79.4,67.5,30.18,SSE,163,2.0,0.0,67,0.00,,BKN035,0.00,VWS V14.01,2013-06-20 17:23:00,
2013-06-20 13:28:00,79.6,66.4,30.18,North,360,0.0,0.0,64,0.00,,BKN035,0.00,VWS V14.01,2013-06-20 17:28:00,
2013-06-20 13:33:00,79.7,66.9,30.18,South,186,0.0,0.0,65,0.00,,BKN035,0.00,VWS V14.01,2013-06-20 17:33:00,
2013-06-20 13:38:00,79.5,67.2,30.18,South,186,0.0,0.0,66,0.00,,BKN035,0.00,VWS V14.01,2013-06-20 17:38:00,
2013-06-20 13:43:00,78.8,66.9,30.18,SSE,148,0.0,0.0,67,0.00,,BKN035,0.00,VWS V14.01,2013-06-20 17:43:00,
2013-06-20 13:48:00,78.9,66.6,30.18,SE,145,1.0,0.0,66,0.00,,BKN035,0.00,VWS V14.01,2013-06-20 17:48:00,
2013-06-20 13:53:00,78.9,66.2,30.17,SSW,213,0.0,0.0,65,0.00,,BKN035,0.00,VWS V14.01,2013-06-20 17:53:00,
2013-06-20 13:58:00,78.7,66.8,30.17,SSE,154,1.0,0.0,67,0.00,,BKN035,0.00,VWS V14.01,2013-06-20 17:58:00,
2013-06-20 14:03:00,78.1,67.1,30.17,SSE,153,0.0,0.0,69,0.00,,BKN041,0.00,VWS V14.01,2013-06-20 18:03:00,
2013-06-20 14:08:00,78.1,67.5,30.17,ESE,115,0.0,0.0,70,0.00,,BKN041,0.00,VWS V14.01,2013-06-20 18:08:00,
2013-06-20 14:13:00,78.7,67.7,30.17,ESE,110,0.0,0.0,69,0.00,,BKN041,0.00,VWS V14.01,2013-06-20 18:13:00,
2013-06-20 14:18:00,78.7,65.5,30.17,South,184,1.0,0.0,64,0.00,,BKN041,0.00,VWS V14.01,2013-06-20 18:18:00,
2013-06-20 14:23:00,78.6,66.7,30.17,SW,228,0.0,0.0,67,0.00,,BKN041,0.00,VWS V14.01,2013-06-20 18:23:00,
2013-06-20 14:28:00,79.1,65.9,30.17,SSE,165,0.0,0.0,64,0.00,,BKN041,0.00,VWS V14.01,2013-06-20 18:28:00,
2013-06-20 14:33:00,79.5,66.3,30.17,East,91,0.0,0.0,64,0.00,,BKN041,0.00,VWS V14.01,2013-06-20 18:33:00,
2013-06-20 14:38:00,79.1,66.8,30.17,East,91,0.0,0.0,66,0.00,,BKN041,0.00,VWS V14.01,2013-06-20 18:38:00,
2013-06-20 14:43:00,78.7,67.7,30.17,WSW,239,0.0,0.0,69,0.00,,BKN041,0.00,VWS V14.01,2013-06-20 18:43:00,
2013-06-20 14:48:00,78.5,65.3,30.17,SE,128,2.0,0.0,64,0.00,,BKN041,0.00,VWS V14.01,2013-06-20 18:48:00,
2013-06-20 14:53:00,79.0,65.3,30.17,East,97,0.0,0.0,63,0.00,,BKN041,0.00,VWS V14.01,2013-06-20 18:53:00,
2013-06-20 14:58:00,79.5,67.2,30.17,ESE,113,0.0,0.0,66,0.00,,BKN041,0.00,VWS V14.01,2013-06-20 18:58:00,
2013-06-20 15:03:00,79.5,65.8,30.16,East,92,1.0,0.0,63,0.00,,SCT250,0.00,VWS V14.01,2013-06-20 19:03:00,
2013-06-20 15:08:00,79.5,66.3,30.16,East,90,1.0,0.0,64,0.00,,SCT250,0.00,VWS V14.01,2013-06-20 19:08:00,
2013-06-20 15:13:00,79.9,64.8,30.16,SSW,192,2.0,0.0,60,0.00,,SCT250,0.00,VWS V14.01,2013-06-20 19:13:00,
2013-06-20 15:18:00,80.3,65.2,30.16,SSW,196,1.0,0.0,60,0.00,,SCT250,0.00,VWS V14.01,2013-06-20 19:18:00,
2013-06-20 15:23:00,80.3,66.1,30.16,SSW,201,0.0,0.0,62,0.00,,SCT250,0.00,VWS V14.01,2013-06-20 19:23:00,
2013-06-20 15:28:00,79.8,65.2,30.16,ESE,109,1.0,0.0,61,0.00,,SCT250,0.00,VWS V14.01,2013-06-20 19:28:00,
2013-06-20 15:33:00,79.6,65.4,30.16,WSW,251,0.0,0.0,62,0.00,,SCT250,0.00,VWS V14.01,2013-06-20 19:33:00,
2013-06-20 15:38:00,79.6,65.4,30.16,East,94,0.0,0.0,62,0.00,,SCT250,0.00,VWS V14.01,2013-06-20 19:38:00,
2013-06-20 15:43:00,79.4,65.3,30.16,ESE,117,0.0,0.0,62,0.00,,SCT250,0.00,VWS V14.01,2013-06-20 19:43:00,
2013-06-20 15:48:00,79.7,65.5,30.16,South,189,3.0,0.0,62,0.00,,SCT250,0.00,VWS V14.01,2013-06-20 19:48:00,
2013-06-20 15:53:00,79.9,66.2,30.16,West,267,0.0,0.0,63,0.00,,SCT250,0.00,VWS V14.01,2013-06-20 19:53:00,
2013-06-20 15:58:00,79.8,64.7,30.15,SE,125,1.0,0.0,60,0.00,,SCT250,0.00,VWS V14.01,2013-06-20 19:58:00,
2013-06-20 16:03:00,79.4,66.6,30.15,ESE,118,2.0,0.0,65,0.00,,SCT250,0.00,VWS V14.01,2013-06-20 20:03:00,
2013-06-20 16:08:00,79.3,65.6,30.15,SSW,199,0.0,0.0,63,0.00,,SCT250,0.00,VWS V14.01,2013-06-20 20:08:00,
2013-06-20 16:13:00,79.6,65.9,30.15,South,184,1.0,0.0,63,0.00,,SCT250,0.00,VWS V14.01,2013-06-20 20:13:00,
2013-06-20 16:18:00,79.8,65.2,30.15,SSW,192,0.0,0.0,61,0.00,,SCT250,0.00,VWS V14.01,2013-06-20 20:18:00,
2013-06-20 16:23:00,80.0,65.4,30.15,South,169,0.0,0.0,61,0.00,,SCT250,0.00,VWS V14.01,2013-06-20 20:23:00,
2013-06-20 16:28:00,80.1,65.4,30.15,SSE,163,2.0,0.0,61,0.00,,SCT250,0.00,VWS V14.01,2013-06-20 20:28:00,
2013-06-20 16:33:00,80.0,64.9,30.15,SE,126,0.0,0.0,60,0.00,,SCT250,0.00,VWS V14.01,2013-06-20 20:33:00,
2013-06-20 16:38:00,79.9,64.8,30.15,ESE,121,0.0,0.0,60,0.00,,SCT250,0.00,VWS V14.01,2013-06-20 20:38:00,
2013-06-20 16:43:00,79.8,64.2,30.15,SSE,163,2.0,0.0,59,0.00,,SCT250,0.00,VWS V14.01,2013-06-20 20:43:00,
2013-06-20 16:48:00,80.0,64.4,30.15,West,267,0.0,0.0,59,0.00,,SCT250,0.00,VWS V14.01,2013-06-20 20:48:00,
2013-06-20 16:53:00,80.1,65.4,30.14,South,180,1.0,0.0,61,0.00,,SCT250,0.00,VWS V14.01,2013-06-20 20:53:00,
2013-06-20 16:58:00,80.2,64.6,30.14,South,175,2.0,0.0,59,0.00,,SCT250,0.00,VWS V14.01,2013-06-20 20:58:00,
2013-06-20 17:03:00,80.2,65.5,30.14,SW,215,0.0,0.0,61,0.00,,SCT250,0.00,VWS V14.01,2013-06-20 21:03:00,
2013-06-20 17:08:00,80.0,64.9,30.14,South,173,0.0,0.0,60,0.00,,SCT250,0.00,VWS V14.01,2013-06-20 21:08:00,
2013-06-20 17:13:00,79.8,65.6,30.14,ENE,63,1.0,0.0,62,0.00,,SCT250,0.00,VWS V14.01,2013-06-20 21:13:00,
2013-06-20 17:18:00,79.7,64.6,30.13,ENE,65,0.0,0.0,60,0.00,,SCT250,0.00,VWS V14.01,2013-06-20 21:18:00,
2013-06-20 17:23:00,79.8,65.2,30.13,SSW,194,1.0,0.0,61,0.00,,SCT250,0.00,VWS V14.01,2013-06-20 21:23:00,
2013-06-20 17:28:00,79.9,64.8,30.13,SW,236,0.0,0.0,60,0.00,,SCT250,0.00,VWS V14.01,2013-06-20 21:28:00,
2013-06-20 17:33:00,79.8,65.2,30.13,SW,216,0.0,0.0,61,0.00,,SCT250,0.00,VWS V14.01,2013-06-20 21:33:00,
2013-06-20 17:38:00,79.8,65.2,30.13,WSW,249,0.0,0.0,61,0.00,,SCT250,0.00,VWS V14.01,2013-06-20 21:38:00,
2013-06-20 17:43:00,79.9,65.3,30.13,SSW,209,1.0,0.0,61,0.00,,SCT250,0.00,VWS V14.01,2013-06-20 21:43:00,
2013-06-20 17:48:00,79.9,64.8,30.13,SSW,193,0.0,0.0,60,0.00,,SCT250,0.00,VWS V14.01,2013-06-20 21:48:00,
2013-06-20 17:53:00,79.8,66.1,30.13,South,176,0.0,0.0,63,0.00,,SCT250,0.00,VWS V14.01,2013-06-20 21:53:00,
2013-06-20 17:58:00,79.7,64.6,30.13,South,170,0.0,0.0,60,0.00,,SCT250,0.00,VWS V14.01,2013-06-20 21:58:00,
2013-06-20 18:03:00,79.6,65.4,30.13,South,179,0.0,0.0,62,0.00,,SCT250,0.00,VWS V14.01,2013-06-20 22:03:00,
2013-06-20 18:08:00,79.4,65.3,30.13,South,184,0.0,0.0,62,0.00,,SCT250,0.00,VWS V14.01,2013-06-20 22:08:00,
2013-06-20 18:13:00,79.3,64.7,30.12,SSW,197,2.0,0.0,61,0.00,,SCT250,0.00,VWS V14.01,2013-06-20 22:13:00,
2013-06-20 18:18:00,79.3,64.2,30.12,SSE,167,0.0,0.0,60,0.00,,SCT250,0.00,VWS V14.01,2013-06-20 22:18:00,
2013-06-20 18:23:00,79.2,64.1,30.12,South,181,1.0,0.0,60,0.00,,SCT250,0.00,VWS V14.01,2013-06-20 22:23:00,
2013-06-20 18:28:00,79.2,64.6,30.12,SSW,200,0.0,0.0,61,0.00,,SCT250,0.00,VWS V14.01,2013-06-20 22:28:00,
2013-06-20 18:33:00,79.1,64.5,30.12,SE,127,0.0,0.0,61,0.00,,SCT250,0.00,VWS V14.01,2013-06-20 22:33:00,
2013-06-20 18:38:00,79.1,64.0,30.12,ESE,108,0.0,0.0,60,0.00,,SCT250,0.00,VWS V14.01,2013-06-20 22:38:00,
2013-06-20 18:43:00,78.9,64.8,30.12,SSE,152,0.0,0.0,62,0.00,,SCT250,0.00,VWS V14.01,2013-06-20 22:43:00,
2013-06-20 18:48:00,78.9,64.8,30.12,SSW,193,1.0,0.0,62,0.00,,SCT250,0.00,VWS V14.01,2013-06-20 22:48:00,
2013-06-20 18:53:00,78.9,64.3,30.12,ESE,119,0.0,0.0,61,0.00,,SCT250,0.00,VWS V14.01,2013-06-20 22:53:00,
2013-06-20 18:58:00,78.9,64.3,30.12,South,191,2.0,0.0,61,0.00,,SCT250,0.00,VWS V14.01,2013-06-20 22:58:00,
2013-06-20 19:03:00,78.8,64.2,30.13,SSW,201,0.0,0.0,61,0.00,,SCT250,0.00,VWS V14.01,2013-06-20 23:03:00,
2013-06-20 19:08:00,78.8,64.2,30.13,South,186,4.0,0.0,61,0.00,,SCT250,0.00,VWS V14.01,2013-06-20 23:08:00,
2013-06-20 19:13:00,78.7,63.7,30.13,SE,140,0.0,0.0,60,0.00,,SCT250,0.00,VWS V14.01,2013-06-20 23:13:00,
2013-06-20 19:18:00,78.5,64.0,30.13,SE,125,0.0,0.0,61,0.00,,SCT250,0.00,VWS V14.01,2013-06-20 23:18:00,
2013-06-20 19:23:00,78.3,63.8,30.13,ESE,120,0.0,0.0,61,0.00,,SCT250,0.00,VWS V14.01,2013-06-20 23:23:00,
2013-06-20 19:28:00,78.2,64.1,30.13,SE,124,0.0,0.0,62,0.00,,SCT250,0.00,VWS V14.01,2013-06-20 23:28:00,
2013-06-20 19:34:00,78.0,63.9,30.13,NNE,24,0.0,0.0,62,0.00,,SCT250,0.00,VWS V14.01,2013-06-20 23:34:00,
2013-06-20 19:39:00,78.0,64.4,30.13,SE,143,0.0,0.0,63,0.00,,SCT250,0.00,VWS V14.01,2013-06-20 23:39:00,
2013-06-20 19:44:00,77.8,64.7,30.13,ESE,117,0.0,0.0,64,0.00,,SCT250,0.00,VWS V14.01,2013-06-20 23:44:00,
2013-06-20 19:49:00,77.7,64.6,30.13,ESE,120,0.0,0.0,64,0.00,,SCT250,0.00,VWS V14.01,2013-06-20 23:49:00,
2013-06-20 19:54:00,77.5,64.4,30.13,South,191,0.0,0.0,64,0.00,,SCT250,0.00,VWS V14.01,2013-06-20 23:54:00,
2013-06-20 19:59:00,77.4,64.3,30.13,South,191,0.0,0.0,64,0.00,,SCT250,0.00,VWS V14.01,2013-06-20 23:59:00,
2013-06-20 20:04:00,77.2,64.1,30.13,South,186,0.0,0.0,64,0.00,,SCT250,0.00,VWS V14.01,2013-06-21 00:04:00,
2013-06-20 20:09:00,77.0,64.3,30.13,South,186,0.0,0.0,65,0.00,,SCT250,0.00,VWS V14.01,2013-06-21 00:09:00,
2013-06-20 20:14:00,76.8,64.2,30.13,South,186,0.0,0.0,65,0.00,,SCT250,0.00,VWS V14.01,2013-06-21 00:14:00,
2013-06-20 20:19:00,76.7,64.1,30.13,South,186,0.0,0.0,65,0.00,,SCT250,0.00,VWS V14.01,2013-06-21 00:19:00,
2013-06-20 20:24:00,76.5,64.3,30.13,South,186,0.0,0.0,66,0.00,,SCT250,0.00,VWS V14.01,2013-06-21 00:24:00,
2013-06-20 20:29:00,76.3,64.1,30.14,South,186,0.0,0.0,66,0.00,,SCT250,0.00,VWS V14.01,2013-06-21 00:29:00,
2013-06-20 20:34:00,76.1,64.4,30.14,South,186,0.0,0.0,67,0.00,,SCT250,0.00,VWS V14.01,2013-06-21 00:34:00,
2013-06-20 20:39:00,75.8,64.1,30.14,South,186,0.0,0.0,67,0.00,,SCT250,0.00,VWS V14.01,2013-06-21 00:39:00,
2013-06-20 20:44:00,75.6,64.7,30.14,South,186,0.0,0.0,69,0.00,,SCT250,0.00,VWS V14.01,2013-06-21 00:44:00,
2013-06-20 20:49:00,75.3,64.8,30.14,South,186,0.0,0.0,70,0.00,,SCT250,0.00,VWS V14.01,2013-06-21 00:49:00,
2013-06-20 20:54:00,75.1,65.1,30.14,South,186,0.0,0.0,71,0.00,,SCT250,0.00,VWS V14.01,2013-06-21 00:54:00,
2013-06-20 20:59:00,74.8,64.8,30.14,South,186,0.0,0.0,71,0.00,,SCT250,0.00,VWS V14.01,2013-06-21 00:59:00,
2013-06-20 21:04:00,74.5,64.9,30.14,South,186,1.0,0.0,72,0.00,,SCT250,0.00,VWS V14.01,2013-06-21 01:04:00,
2013-06-20 21:09:00,74.2,65.0,30.14,South,186,0.0,0.0,73,0.00,,SCT250,0.00,VWS V14.01,2013-06-21 01:09:00,
2013-06-20 21:14:00,73.9,65.1,30.14,South,186,0.0,0.0,74,0.00,,SCT250,0.00,VWS V14.01,2013-06-21 01:14:00,
2013-06-20 21:19:00,73.6,65.2,30.14,South,186,0.0,0.0,75,0.00,,SCT250,0.00,VWS V14.01,2013-06-21 01:19:00,
2013-06-20 21:24:00,73.2,64.8,30.14,South,186,0.0,0.0,75,0.00,,SCT250,0.00,VWS V14.01,2013-06-21 01:24:00,
2013-06-20 21:29:00,73.0,65.4,30.14,South,186,0.0,0.0,77,0.00,,SCT250,0.00,VWS V14.01,2013-06-21 01:29:00,
2013-06-20 21:34:00,72.7,65.4,30.15,South,186,0.0,0.0,78,0.00,,SCT250,0.00,VWS V14.01,2013-06-21 01:34:00,
2013-06-20 21:39:00,72.4,65.2,30.15,South,186,0.0,0.0,78,0.00,,SCT250,0.00,VWS V14.01,2013-06-21 01:39:00,
2013-06-20 21:44:00,72.1,65.2,30.15,South,186,0.0,0.0,79,0.00,,SCT250,0.00,VWS V14.01,2013-06-21 01:44:00,
2013-06-20 21:49:00,71.8,64.9,30.15,South,186,0.0,0.0,79,0.00,,SCT250,0.00,VWS V14.01,2013-06-21 01:49:00,
2013-06-20 21:54:00,71.5,64.7,30.15,South,186,0.0,0.0,79,0.00,,SCT250,0.00,VWS V14.01,2013-06-21 01:54:00,
2013-06-20 21:59:00,71.3,65.2,30.16,South,186,0.0,0.0,81,0.00,,SCT250,0.00,VWS V14.01,2013-06-21 01:59:00,
2013-06-20 22:04:00,71.1,65.0,30.16,South,186,0.0,0.0,81,0.00,,FEW250,0.00,VWS V14.01,2013-06-21 02:04:00,
2013-06-20 22:09:00,70.8,65.0,30.16,South,186,0.0,0.0,82,0.00,,FEW250,0.00,VWS V14.01,2013-06-21 02:09:00,
2013-06-20 22:14:00,70.6,64.8,30.16,South,186,0.0,0.0,82,0.00,,FEW250,0.00,VWS V14.01,2013-06-21 02:14:00,
2013-06-20 22:19:00,70.4,64.7,30.17,South,186,0.0,0.0,82,0.00,,FEW250,0.00,VWS V14.01,2013-06-21 02:19:00,
2013-06-20 22:24:00,70.2,64.4,30.17,South,186,0.0,0.0,82,0.00,,FEW250,0.00,VWS V14.01,2013-06-21 02:24:00,
2013-06-20 22:29:00,70.1,64.7,30.17,South,186,0.0,0.0,83,0.00,,FEW250,0.00,VWS V14.01,2013-06-21 02:29:00,
2013-06-20 22:34:00,69.9,64.8,30.17,South,186,0.0,0.0,84,0.00,,FEW250,0.00,VWS V14.01,2013-06-21 02:34:00,
2013-06-20 22:39:00,69.7,64.7,30.18,South,186,0.0,0.0,84,0.00,,FEW250,0.00,VWS V14.01,2013-06-21 02:39:00,
2013-06-20 22:44:00,69.5,64.8,30.18,South,186,0.0,0.0,85,0.00,,FEW250,0.00,VWS V14.01,2013-06-21 02:44:00,
2013-06-20 22:49:00,69.3,64.9,30.18,South,186,0.0,0.0,86,0.00,,FEW250,0.00,VWS V14.01,2013-06-21 02:49:00,
2013-06-20 22:54:00,69.2,64.8,30.18,South,186,0.0,0.0,86,0.00,,FEW250,0.00,VWS V14.01,2013-06-21 02:54:00,
2013-06-20 22:59:00,69.0,64.3,30.18,South,186,0.0,0.0,85,0.00,,FEW250,0.00,VWS V14.01,2013-06-21 02:59:00,
2013-06-20 23:04:00,68.8,64.4,30.18,South,186,0.0,0.0,86,0.00,,FEW250,0.00,VWS V14.01,2013-06-21 03:04:00,
2013-06-20 23:09:00,68.6,64.2,30.18,South,186,0.0,0.0,86,0.00,,FEW250,0.00,VWS V14.01,2013-06-21 03:09:00,
2013-06-20 23:14:00,68.5,64.2,30.18,South,186,0.0,0.0,86,0.00,,FEW250,0.00,VWS V14.01,2013-06-21 03:14:00,
2013-06-20 23:19:00,68.4,64.4,30.18,South,186,0.0,0.0,87,0.00,,FEW250,0.00,VWS V14.01,2013-06-21 03:19:00,
2013-06-20 23:24:00,68.2,64.2,30.18,South,186,0.0,0.0,87,0.00,,FEW250,0.00,VWS V14.01,2013-06-21 03:24:00,
2013-06-20 23:29:00,68.1,64.4,30.18,South,186,0.0,0.0,88,0.00,,FEW250,0.00,VWS V14.01,2013-06-21 03:29:00,
2013-06-20 23:34:00,68.0,64.3,30.19,South,186,0.0,0.0,88,0.00,,FEW250,0.00,VWS V14.01,2013-06-21 03:34:00,
2013-06-20 23:39:00,67.9,64.2,30.19,South,186,0.0,0.0,88,0.00,,FEW250,0.00,VWS V14.01,2013-06-21 03:39:00,
2013-06-20 23:44:00,67.8,64.1,30.19,South,186,0.0,0.0,88,0.00,,FEW250,0.00,VWS V14.01,2013-06-21 03:44:00,
2013-06-20 23:49:00,67.7,64.3,30.19,South,186,0.0,0.0,89,0.00,,FEW250,0.00,VWS V14.01,2013-06-21 03:49:00,
2013-06-20 23:54:00,67.6,64.2,30.19,South,186,0.0,0.0,89,0.00,,FEW250,0.00,VWS V14.01,2013-06-21 03:54:00,
2013-06-20 23:59:00,67.5,64.2,30.18,South,186,0.0,0.0,89,0.00,,FEW250,0.00,VWS V14.01,2013-06-21 03:59:00,